Simultaneous Nadir Overpasses (SNOs) Predictions

Prediction of SNOs between AQUA and NOAA-19 Satellite Orbit:

Table of predicted SNOs for the next 14.0 days since TLE Epoch: 3/9/2024
Index Date (AQUA) Time (AQUA) Lat,Lon (AQUA) SZA (AQUA ) Date (NOAA-19) Time (NOAA-19) Lat,Lon (NOAA-19) SZA (NOAA-19 ) Distance(km) Time Diff (sec)
1 03/11/2024 07:37:57 75.86, 61.20 79.36 03/11/2024 07:37:55 75.86, 61.12 79.36 2.00 2
2 03/11/2024 08:27:32 -76.48,-133.15 99.98 03/11/2024 08:28:36 -76.47,-129.33 100.10 99.38 64
3 03/13/2024 11:28:50 -75.83,-176.40 101.54 03/13/2024 11:27:59 -75.82,-176.46 101.53 1.80 51
4 03/13/2024 12:18:15 75.91, -8.99 78.54 03/13/2024 12:19:01 75.90, -8.97 78.53 1.33 46
5 03/15/2024 16:09:07 -75.87, 113.45 102.37 03/15/2024 16:09:05 -75.85, 113.40 102.38 2.30 2
6 03/17/2024 19:59:59 75.82,-124.10 76.73 03/17/2024 19:59:17 75.84,-124.14 76.75 2.04 42
7 03/17/2024 20:49:23 -75.90, 43.32 103.20 03/17/2024 20:50:10 -75.91, 43.40 103.20 2.62 47
8 03/20/2024 00:40:14 75.85, 165.78 75.89 03/20/2024 00:40:23 75.84, 165.67 75.89 3.09 9
9 03/22/2024 04:31:04 -75.83, -71.83 105.00 03/22/2024 04:30:26 -75.82, -71.85 105.00 0.89 38



Historial Predications of SNOs between AQUA and NOAA-19
